Location: ????
(33.1659°N, 35.6604°E)
Time: 20:50:54
(UTC+00:00)

CZ-4 R/B - Pass Details

Date: 20 September 2019
Orbit: 532 x 598 km, 97.8° (Epoch: 16 October)

Event Time Altitude Azimuth Distance (km) Brightness Sun altitude
Rises 16:27:34 0° 185° (S) 2,663 4.8 -11.3°
Reaches altitude 10° 16:29:47 10° 194° (SSW) 1,782 4.0 -11.7°
Maximum altitude 16:33:20 36° 262° (W) 870 3.0 -12.5°
Drops below altitude 10° 16:36:57 10° 329° (NNW) 1,817 4.5 -13.2°
Sets 16:39:14 0° 338° (NNW) 2,725 5.3 -13.7°
